Total_Precipitation_Accumulation
0.92 0.83 0.67 0.59 0.50 0.46 0.41 0.36 0.31 0.30 0.30 0.31 0.29 0.25 0.23 0.21 0.19 0.17 0.16 0.15 0.14 0.19 0.30 0.41 0.46 0.48 0.53 0.56 0.54 0.54 0.51 0.49 0.48 0.49 0.48 0.47 0.47 0.47 0.48 0.49 0.48 0.49 0.51
1.04 0.99 0.91 0.80 0.69 0.65 0.57 0.47 0.38 0.35 0.34 0.32 0.29 0.28 0.27 0.26 0.23 0.21 0.16 0.13 0.13 0.13 0.19 0.34 0.52 0.63 0.69 0.76 0.73 0.70 0.63 0.59 0.58 0.57 0.56 0.55 0.54 0.54 0.54 0.56 0.55 0.57 0.60
1.12 1.11 1.03 0.93 0.80 0.78 0.77 0.72 0.60 0.49 0.43 0.38 0.32 0.30 0.29 0.27 0.26 0.25 0.24 0.20 0.15 0.13 0.14 0.24 0.42 0.58 0.68 0.79 0.85 0.84 0.78 0.69 0.65 0.64 0.64 0.64 0.62 0.61 0.62 0.65 0.67 0.69 0.71
1.18 1.19 1.11 1.04 0.98 0.89 0.83 0.77 0.73 0.65 0.59 0.55 0.47 0.42 0.38 0.32 0.25 0.23 0.23 0.24 0.24 0.21 0.17 0.20 0.27 0.37 0.50 0.62 0.81 0.95 0.99 0.90 0.78 0.72 0.70 0.71 0.72 0.73 0.76 0.78 0.79 0.80 0.79
1.33 1.27 1.14 1.05 1.11 1.08 0.94 0.87 0.77 0.69 0.61 0.56 0.54 0.51 0.47 0.42 0.35 0.29 0.23 0.21 0.21 0.22 0.22 0.22 0.23 0.26 0.34 0.45 0.64 0.88 1.02 1.05 0.98 0.87 0.81 0.79 0.80 0.84 0.90 0.94 0.92 0.90 0.90
1.39 1.41 1.30 1.19 1.17 1.15 1.05 0.95 0.85 0.72 0.62 0.61 0.60 0.54 0.51 0.51 0.46 0.39 0.34 0.28 0.23 0.21 0.21 0.21 0.22 0.22 0.25 0.33 0.47 0.63 0.84 0.98 1.03 1.04 1.00 0.98 0.98 1.00 1.07 1.11 1.10 1.08 1.10
1.37 1.44 1.41 1.33 1.26 1.14 1.09 1.03 0.97 0.87 0.73 0.69 0.68 0.54 0.45 0.45 0.46 0.41 0.37 0.34 0.30 0.28 0.27 0.26 0.26 0.27 0.27 0.29 0.33 0.42 0.54 0.70 0.86 0.99 1.04 1.06 1.09 1.12 1.15 1.21 1.25 1.25 1.29
1.44 1.38 1.42 1.43 1.39 1.28 1.21 1.16 1.11 1.02 0.90 0.85 0.83 0.79 0.60 0.45 0.40 0.38 0.36 0.36 0.35 0.35 0.35 0.35 0.34 0.34 0.34 0.32 0.30 0.33 0.37 0.50 0.73 1.01 1.16 1.19 1.25 1.27 1.31 1.38 1.46 1.50 1.57
1.56 1.44 1.40 1.46 1.46 1.41 1.36 1.38 1.39 1.34 1.21 1.13 1.04 1.08 0.89 0.60 0.43 0.39 0.39 0.39 0.38 0.38 0.39 0.40 0.39 0.38 0.38 0.38 0.35 0.35 0.39 0.47 0.65 0.96 1.22 1.34 1.40 1.45 1.55 1.65 1.74 1.82 1.83
1.65 1.59 1.53 1.49 1.47 1.45 1.40 1.45 1.55 1.59 1.55 1.43 1.31 1.16 1.03 0.85 0.72 0.53 0.40 0.40 0.42 0.41 0.43 0.43 0.43 0.42 0.40 0.41 0.42 0.45 0.50 0.57 0.71 0.96 1.27 1.52 1.69 1.82 1.95 2.07 2.15 2.19 2.14
1.68 1.59 1.53 1.50 1.43 1.41 1.42 1.43 1.48 1.58 1.61 1.52 1.40 1.30 1.21 1.02 0.85 0.76 0.54 0.40 0.41 0.42 0.42 0.41 0.39 0.38 0.40 0.42 0.47 0.55 0.67 0.73 0.85 1.06 1.39 1.71 1.96 2.22 2.43 2.58 2.66 2.64 2.55
1.65 1.57 1.49 1.44 1.37 1.32 1.33 1.38 1.45 1.53 1.58 1.52 1.43 1.29 1.22 1.13 0.96 0.91 0.80 0.59 0.52 0.47 0.44 0.43 0.43 0.44 0.46 0.50 0.58 0.72 0.78 0.84 0.97 1.18 1.53 1.80 1.99 2.23 2.43 2.63 2.75 2.75 2.72
1.55 1.40 1.37 1.34 1.33 1.28 1.30 1.35 1.39 1.40 1.46 1.46 1.43 1.33 1.24 1.11 1.01 1.04 1.04 0.88 0.74 0.59 0.53 0.49 0.49 0.55 0.61 0.68 0.74 0.87 0.85 0.88 0.96 1.10 1.38 1.66 1.75 1.85 2.02 2.30 2.58 2.68 2.66
1.66 1.50 1.41 1.38 1.39 1.37 1.34 1.34 1.31 1.29 1.33 1.37 1.37 1.34 1.29 1.18 1.10 1.10 1.14 1.23 1.17 0.94 0.79 0.71 0.69 0.73 0.78 0.83 0.91 0.99 0.88 0.96 0.96 0.99 1.14 1.34 1.39 1.40 1.45 1.63 1.90 2.14 2.29
1.59 1.52 1.47 1.42 1.39 1.40 1.39 1.37 1.34 1.24 1.20 1.21 1.22 1.23 1.20 1.13 1.12 1.16 1.24 1.38 1.55 1.44 1.12 0.89 0.88 0.91 0.93 0.92 0.96 0.87 0.76 0.89 0.92 0.90 0.94 1.03 1.07 1.04 1.05 1.19 1.33 1.44 1.58
1.35 1.36 1.36 1.34 1.30 1.29 1.30 1.30 1.29 1.24 1.18 1.12 1.11 1.15 1.14 1.10 1.11 1.14 1.22 1.32 1.46 1.59 1.41 1.02 0.87 0.84 0.85 0.84 0.90 0.77 0.70 0.84 0.80 0.79 0.81 0.85 0.89 0.88 0.89 0.97 1.06 1.11 1.13
1.22 1.26 1.24 1.19 1.20 1.19 1.18 1.21 1.20 1.18 1.16 1.07 1.01 1.02 1.03 1.02 1.05 1.07 1.10 1.17 1.24 1.33 1.34 1.04 0.82 0.77 0.78 0.73 0.72 0.66 0.61 0.60 0.60 0.71 0.72 0.73 0.73 0.73 0.77 0.83 0.89 0.94 0.98
1.00 1.08 1.10 1.06 1.04 1.02 1.00 1.02 1.03 1.02 1.04 1.02 0.95 0.92 0.90 0.90 0.94 0.95 1.00 1.03 1.04 1.05 1.09 0.98 0.79 0.70 0.65 0.59 0.55 0.51 0.48 0.47 0.45 0.56 0.58 0.59 0.61 0.62 0.62 0.64 0.71 0.77 0.81
0.78 0.85 0.91 0.92 0.91 0.89 0.85 0.83 0.84 0.83 0.82 0.86 0.88 0.88 0.86 0.88 0.94 0.95 0.95 0.92 0.88 0.87 0.90 0.88 0.73 0.61 0.56 0.52 0.51 0.47 0.41 0.38 0.35 0.40 0.45 0.45 0.48 0.52 0.56 0.58 0.60 0.62 0.63
0.70 0.72 0.75 0.79 0.83 0.84 0.85 0.83 0.82 0.84 0.84 0.83 0.86 0.91 0.93 0.93 0.93 0.92 0.91 0.89 0.88 0.89 0.87 0.89 0.83 0.71 0.64 0.57 0.56 0.51 0.46 0.40 0.36 0.34 0.40 0.43 0.46 0.50 0.51 0.52 0.48 0.45 0.46
0.74 0.71 0.75 0.76 0.81 0.86 0.91 0.95 0.96 1.02 1.08 1.10 1.08 1.05 1.03 1.05 1.02 0.95 0.90 0.87 0.88 0.93 0.96 0.99 0.94 0.80 0.66 0.60 0.57 0.52 0.52 0.50 0.47 0.43 0.42 0.40 0.39 0.38 0.39 0.42 0.44 0.44 0.44
0.80 0.77 0.81 0.84 0.90 0.95 1.14 1.14 1.07 1.07 1.14 1.13 1.09 1.02 0.97 0.96 0.92 0.93 0.89 0.86 0.90 0.98 1.07 1.07 0.95 0.76 0.56 0.49 0.50 0.58 0.68 0.78 0.70 0.46 0.44 0.42 0.39 0.40 0.37 0.36 0.41 0.45 0.50
0.85 0.85 0.90 0.97 1.03 1.11 1.20 1.11 1.08 1.00 0.99 0.95 0.91 0.88 0.85 0.82 0.82 0.74 0.79 0.88 0.92 0.98 0.97 0.89 0.78 0.64 0.56 0.51 0.63 0.79 0.80 0.79 0.62 0.43 0.48 0.53 0.44 0.43 0.40 0.42 0.51 0.50 0.51
0.98 1.03 1.06 1.10 1.12 1.15 1.13 1.00 0.92 0.82 0.82 0.81 0.78 0.76 0.74 0.74 0.73 0.74 0.79 0.85 0.77 0.72 0.71 0.67 0.64 0.61 0.59 0.60 0.72 0.88 0.87 0.84 0.70 0.59 0.59 0.68 0.54 0.48 0.42 0.42 0.50 0.51 0.54
1.11 1.10 1.07 1.02 0.96 0.94 0.90 0.79 0.74 0.66 0.65 0.65 0.63 0.65 0.69 0.66 0.74 0.89 0.91 0.84 0.69 0.60 0.63 0.68 0.72 0.70 0.71 0.72 0.74 0.90 1.03 1.10 0.95 0.69 0.59 0.66 0.58 0.52 0.50 0.46 0.45 0.51 0.52
0.99 0.93 0.86 0.80 0.73 0.66 0.65 0.61 0.58 0.53 0.54 0.52 0.51 0.52 0.60 0.62 0.77 0.90 0.80 0.73 0.66 0.60 0.60 0.60 0.60 0.60 0.59 0.61 0.71 0.80 1.09 1.40 1.18 0.86 0.55 0.69 0.69 0.73 0.85 0.54 0.45 0.48 0.52